This demonstration page uses our WeatherBlox Daily Observations layout. Learn more.

Left ArrowRight Arrow

34.02893, -84.19858

Hourly Observations for February 1, 2021

Temp ( °F °C ) Dew Point ( °F °C ) Humidity (%) Winds ( mph kmh ) Pressure ( in mb ) Visibility ( mi km ) Precip ( " mm )
12:13 am 00:13 Cloudy 46 7.8 44 6.7 93 93 WNW 13 20 29.84 1010 8 13 0.00 0.00
12:25 am 00:25 Cloudy 45 7.2 43 6.1 93 93 WNW 17 28 29.84 1011 8 13 0.00 0.00
12:53 am 00:53 Cloudy 43 6.1 40 4.4 89 89 NW 14 22 29.86 1011 10 16 0.00 0.00
1:22 am 01:22 Cloudy 42 5.6 38 3.3 85 85 WNW 16 26 29.86 1011 10 16 0.00 0.00
1:53 am 01:53 Cloudy 42 5.6 36 2.2 79 79 NW 16 26 29.86 1011 10 16 0.00 0.00
2:53 am 02:53 Cloudy 41 5 36 2.2 82 82 NW 14 22 29.87 1012 10 16 0.00 0.00
3:53 am 03:53 Cloudy 39 3.9 33 0.6 79 79 NW 20 31 29.88 1012 10 16 0.00 0.00
4:53 am 04:53 Cloudy 39 3.9 32 0 76 76 NW 13 20 29.89 1012 10 16 0.00 0.00
5:53 am 05:53 Cloudy with Light Rain 37 2.8 32 0 82 82 NW 15 24 29.91 1013 9 14 0.00 0.00
6:34 am 06:34 Cloudy 36 2.2 30 -1.1 79 79 NW 18 30 29.93 1014 10 16 0.00 0.00
6:53 am 06:53 Cloudy 35 1.7 31 -0.6 85 85 NW 15 24 29.93 1013 10 16 0.00 0.00
7:06 am 07:06 Cloudy 35 1.7 31 -0.6 85 85 NW 13 20 29.94 1014 10 16 0.00 0.00
7:53 am 07:53 Mostly Cloudy 35 1.7 29 -1.7 78 78 NW 21 33 29.95 1014 10 16 0.00 0.00
8:53 am 08:53 Cloudy 35 1.7 30 -1.1 82 82 NW 17 28 29.95 1014 10 16 0.00 0.00
9:53 am 09:53 Cloudy 35 1.7 29 -1.7 78 78 WNW 17 28 29.95 1014 10 16 0.00 0.00
10:53 am 10:53 Cloudy 36 2.2 28 -2.2 73 73 NW 14 22 29.94 1014 10 16 0.00 0.00
11:53 am 11:53 Cloudy 36 2.2 28 -2.2 73 73 NW 20 31 29.94 1014 10 16 0.00 0.00
12:53 pm 12:53 Cloudy 36 2.2 27 -2.8 70 70 NNW 22 35 29.92 1013 10 16 0.00 0.00
1:53 pm 13:53 Cloudy 36 2.2 27 -2.8 70 70 NW 18 30 29.91 1013 10 16 0.00 0.00
2:53 pm 14:53 Cloudy 35 1.7 27 -2.8 72 72 NW 21 33 29.92 1013 10 16 0.00 0.00
3:53 pm 15:53 Cloudy 35 1.7 27 -2.8 72 72 NW 22 35 29.93 1014 10 16 0.00 0.00
4:53 pm 16:53 Cloudy 35 1.7 27 -2.8 72 72 NW 21 33 29.94 1014 10 16 0.00 0.00
5:53 pm 17:53 Cloudy 35 1.7 27 -2.8 72 72 NW 20 31 29.96 1014 10 16 0.00 0.00
6:53 pm 18:53 Cloudy 34 1.1 27 -2.8 76 76 NW 15 24 29.97 1015 10 16 0.00 0.00
7:53 pm 19:53 Cloudy 34 1.1 26 -3.3 73 73 NW 10 17 29.97 1015 10 16 0.00 0.00
8:53 pm 20:53 Cloudy 34 1.1 25 -3.9 70 70 NNW 21 33 29.99 1016 10 16 0.00 0.00
9:53 pm 21:53 Cloudy 34 1.1 25 -3.9 70 70 NNW 20 31 29.99 1016 10 16 0.00 0.00
10:53 pm 22:53 Cloudy 34 1.1 24 -4.4 67 67 NNW 20 31 30.00 1016 10 16 0.00 0.00
11:08 pm 23:08 Cloudy 34 1.1 24 -4.4 67 67 NW 17 28 30.01 1016 10 16 0.00 0.00
11:17 pm 23:17 Cloudy 34 1.1 24 -4.4 67 67 NNW 17 28 30.01 1016 10 16 0.00 0.00
11:53 pm 23:53 Cloudy 34 1.1 24 -4.4 67 67 NW 15 24 30.00 1016 10 16 0.00 0.00

Powered by AerisWeather